Memphis, TN

12:14 PM CST on December 03, 2016 (GMT -0600)
Memphis International

Weather History for KMEM - October, 2013

Change the Weather History Date:

Thursday, October 17, 2013

  Actual Average Record
Temperature  
Mean Temperature 59 °F 64 °F  
Max Temperature 68 °F 74 °F 88 °F (1947)
Min Temperature 50 °F 53 °F 30 °F (1943)
Degree Days  
Heating Degree Days 6 4  
Month to date heating degree days 15 42  
Since 1 July heating degree days 15 53  
Cooling Degree Days 0 3  
Month to date cooling degree days 103 67  
Year to date cooling degree days 2230 2218  
Growing Degree Days 11 (Base 50)    
Moisture  
Dew Point 52 °F    
Average Humidity 73    
Maximum Humidity 93    
Minimum Humidity 52    
Precipitation  
Precipitation 0.01 in 0.13 in 3.40 in (1981)
Month to date precipitation 1.99 2.05  
Year to date precipitation 50.63 40.52  
Snow  
Snow 0.00 in 0.00 in 0.00 in (2002)
Month to date snowfall 0.0 0.0  
Since 1 July snowfall 0.0 0.0  
Since 1 September snowfall 0.0 0.0  
Snow Depth 0.00 in    
Sea Level Pressure  
Sea Level Pressure 29.99 in    
Wind  
Wind Speed 5 mph (NNW)    
Max Wind Speed 14 mph    
Max Gust Speed 16 mph    
Visibility 10 miles    
Events Rain    
T = Trace of Precipitation, MM = Missing Value Source: NWS Daily Summary

Daily Weather History Graph

Daily Weather History Graph

Search for Another Location

Airport or City:

Trip Planner

Search our weather history database for the weather conditions in past years. The results will help you decide how hot, cold, wet, or windy it might be!

Date:

Astronomy

Oct. 17, 2013 Rise Set
Actual Time 7:07 AM CDT 6:22 PM CDT
Civil Twilight 6:42 AM CDT 6:47 PM CDT
Nautical Twilight 6:12 AM CDT 7:17 PM CDT
Astronomical Twilight 5:43 AM CDT 7:46 PM CDT
Moon 5:35 PM CDT (10/17) 5:42 AM CDT (10/17)
Length of Visible Light 12h 05m
Length of Day
11h 14m
Waxing Gibbous, 98% of the Moon is Illuminated
Oct 17
Waxing Gibbous
Oct 18
Full
Oct 26
Last Quarter
Nov 3
New
Nov 9
First Quarter

Hourly Weather History & Observations

Time (CDT) Temp. Dew Point Humidity Pressure Visibility Wind Dir Wind Speed Gust Speed Precip Events Conditions
12:07 AM 59.0 °F 55.4 °F 88% 29.98 in 10.0 mi Calm Calm - N/A   Overcast
12:54 AM 59.0 °F 54.0 °F 83% 29.97 in 10.0 mi WNW 3.5 mph - N/A   Overcast
1:54 AM 59.0 °F 55.0 °F 87% 29.96 in 10.0 mi WNW 3.5 mph - N/A   Overcast
2:21 AM 59.0 °F 55.4 °F 88% 29.97 in 10.0 mi WNW 5.8 mph - N/A   Overcast
2:35 AM 59.0 °F 55.4 °F 88% 29.97 in 10.0 mi WNW 5.8 mph - N/A   Overcast
2:44 AM 59.0 °F 55.4 °F 88% 29.97 in 10.0 mi WNW 8.1 mph - N/A   Overcast
2:54 AM 57.9 °F 54.0 °F 87% 29.96 in 10.0 mi NW 10.4 mph - N/A   Overcast
3:23 AM 55.4 °F 53.6 °F 94% 29.97 in 7.0 mi WNW 10.4 mph - 0.00 in Rain Light Rain
3:54 AM 55.9 °F 53.1 °F 90% 29.96 in 10.0 mi North 3.5 mph - 0.00 in   Overcast
4:02 AM 55.4 °F 53.6 °F 94% 29.96 in 10.0 mi NW 4.6 mph - N/A   Overcast
4:49 AM 57.2 °F 53.6 °F 88% 29.96 in 9.0 mi NNE 4.6 mph - 0.01 in Rain Light Rain
4:54 AM 57.0 °F 53.1 °F 87% 29.96 in 9.0 mi NNE 4.6 mph - 0.01 in   Overcast
5:54 AM 57.0 °F 54.0 °F 89% 29.97 in 10.0 mi Calm Calm - N/A   Overcast
6:13 AM 57.2 °F 53.6 °F 88% 29.98 in 10.0 mi Calm Calm - N/A   Overcast
6:19 AM 57.2 °F 53.6 °F 88% 29.97 in 9.0 mi Calm Calm - N/A   Overcast
6:38 AM 57.2 °F 51.8 °F 82% 29.98 in 10.0 mi Calm Calm - N/A   Overcast
6:54 AM 57.0 °F 53.1 °F 87% 29.98 in 10.0 mi North 3.5 mph - N/A   Overcast
7:54 AM 57.0 °F 54.0 °F 89% 29.99 in 4.0 mi Calm Calm - 0.00 in   Light Drizzle
8:21 AM 57.2 °F 53.6 °F 88% 30.01 in 4.0 mi NW 3.5 mph - 0.00 in   Light Drizzle
8:54 AM 57.9 °F 54.0 °F 87% 30.02 in 10.0 mi Calm Calm - 0.00 in   Overcast
9:05 AM 57.2 °F 55.4 °F 94% 30.03 in 10.0 mi NNW 4.6 mph - N/A   Overcast
9:54 AM 62.1 °F 55.0 °F 78% 30.03 in 10.0 mi Variable 5.8 mph - N/A   Mostly Cloudy
10:26 AM 60.8 °F 53.6 °F 77% 30.04 in 10.0 mi NNW 5.8 mph - N/A   Mostly Cloudy
10:54 AM 63.0 °F 54.0 °F 72% 30.03 in 10.0 mi NW 8.1 mph - N/A   Mostly Cloudy
11:54 AM 64.0 °F 53.1 °F 67% 30.02 in 10.0 mi WNW 6.9 mph - N/A   Mostly Cloudy
12:22 PM 64.4 °F 51.8 °F 64% 30.03 in 10.0 mi NNW 5.8 mph - N/A   Scattered Clouds
12:45 PM 64.4 °F 51.8 °F 64% 30.02 in 10.0 mi NNW 8.1 mph - N/A   Mostly Cloudy
12:54 PM 64.0 °F 52.0 °F 65% 30.01 in 10.0 mi NW 10.4 mph - N/A   Mostly Cloudy
1:01 PM 66.2 °F 51.8 °F 60% 30.01 in 10.0 mi NW 8.1 mph - N/A   Scattered Clouds
1:54 PM 66.0 °F 51.1 °F 59% 29.99 in 10.0 mi North 8.1 mph - N/A   Scattered Clouds
2:54 PM 66.9 °F 50.0 °F 54% 29.98 in 10.0 mi North 9.2 mph - N/A   Scattered Clouds
3:54 PM 66.9 °F 48.0 °F 51% 29.97 in 10.0 mi NW 9.2 mph - N/A   Partly Cloudy
4:54 PM 66.0 °F 48.0 °F 52% 29.99 in 10.0 mi North 9.2 mph - N/A   Scattered Clouds
5:54 PM 62.1 °F 46.0 °F 56% 29.99 in 10.0 mi NW 5.8 mph - N/A   Scattered Clouds
6:54 PM 61.0 °F 46.9 °F 60% 30.00 in 10.0 mi NNE 5.8 mph - N/A   Scattered Clouds
7:54 PM 60.1 °F 48.0 °F 64% 30.01 in 10.0 mi ENE 4.6 mph - N/A   Partly Cloudy
8:54 PM 57.0 °F 48.0 °F 72% 30.02 in 10.0 mi Calm Calm - N/A   Partly Cloudy
9:54 PM 55.0 °F 48.9 °F 80% 30.02 in 10.0 mi Calm Calm - N/A   Partly Cloudy
10:54 PM 54.0 °F 48.0 °F 80% 30.02 in 10.0 mi Calm Calm - N/A   Partly Cloudy
11:54 PM 52.0 °F 48.0 °F 86% 30.02 in 10.0 mi Calm Calm - N/A   Partly Cloudy